Flag for Germany Weather past 2 weeks in Lemgo, North Rhine-Westphalia, Germany

Now
60 °F

Overcast.


Feels Like: 60 °F
Forecast: 57 / 67 °F
Wind: 2 mph from Southwest

Location: Bad Lippspringe

Current Time: Aug 29, 2014 at 7:22:53 AM

Latest Report: Aug 29, 2014 at 7:00 AM


Visibility: 2 mi

Pressure: 29.97 "Hg

Humidity: 96%

Dew point: 58 °F

Location of LemgoLocation

Historic Weather in Lemgo — Graph

°F

Lemgo temperature yesterday

Maximum temperature yesterday: 72 °F (at 3:00 PM)
Minimum temperature yesterday: 47 °F (at 6:00 AM)
Average temperature yesterday: 61 °F

Past Weeks' High & Low Weather Summary

 TemperatureHumidityPressure
High72 °F (Aug 28, 3:00 PM)99% (Aug 27, 5:00 AM)30.09 "Hg (Aug 27, 5:00 AM)
Low42 °F (Aug 25, 7:00 AM)47% (Aug 20, 4:00 PM)29.65 "Hg (Aug 18, 10:00 AM)
Average57 °F79%29.91 "Hg
* Reported Aug 14 6:00 AM — Aug 29 6:00 AM, Lemgo, Weather by CustomWeather, © 2014

Note: Actual official high and low records may vary slightly from our data, if they occured in-between our weather recording intervals... More about our weather records

Advertising

Lemgo weather history for previous 24 hours

 ConditionsComfort  
Time TempWeatherWind HumidityBarometerVisibility
6:00 AM
Aug 29
61 °FLight freezing rain. Low clouds.5 mph91%29.96 "Hg2 mi
5:00 AM62 °FOvercast.2 mph90%29.95 "Hg8 mi
4:00 AM60 °FOvercast.No wind96%29.94 "Hg5 mi
3:00 AM59 °FRain. Overcast.1 mph95%29.96 "Hg0 mi
2:00 AM59 °FPassing clouds.1 mph91%29.96 "Hg14 mi
1:00 AM61 °FPassing clouds.2 mph86%29.96 "Hg19 mi
12:00 AM64 °FOvercast.1 mph82%29.96 "Hg17 mi
11:00 PM
Aug 28
64 °FOvercast.1 mph81%29.96 "Hg19 mi
10:00 PM66 °FOvercast.1 mph74%29.97 "Hg22 mi
9:00 PM67 °FOvercast.2 mph69%29.96 "Hg19 mi
8:00 PM68 °FOvercast.2 mph64%29.95 "Hg25 mi
7:00 PM71 °FOvercast.2 mph59%29.95 "Hg28 mi
6:00 PM71 °FOvercast.3 mph56%29.96 "Hg28 mi
5:00 PM72 °FPassing clouds.3 mph53%29.96 "Hg28 mi
4:00 PM72 °FOvercast.3 mph53%29.97 "Hg28 mi
3:00 PM72 °FPartly sunny.3 mph54%29.98 "Hg22 mi
2:00 PM71 °FOvercast.3 mph57%29.99 "Hg22 mi
1:00 PM68 °FSunny.5 mph60%30.01 "Hg22 mi
12:00 PM67 °FOvercast.5 mph60%30.02 "Hg22 mi
11:00 AM65 °FOvercast.2 mph61%30.03 "Hg22 mi
10:00 AM64 °FSunny.3 mph58%30.04 "Hg19 mi
9:00 AM61 °FPassing clouds.3 mph64%30.03 "Hg19 mi
8:00 AM57 °FSunny.1 mph71%30.04 "Hg25 mi
7:00 AM49 °FSunny.1 mph87%30.05 "Hg22 mi
Weather by CustomWeather, © 2014

See weather overviewHow to use our weather pages